RH
17 21 28 36 42 54 52 58 59 52 60 58 64 48 70 73 25 20 22 59 81 60 26 58 59 65 65 65 61 46 46 41 18 16 14 21 30 32 34 29 28 38 46 48 33 32 31
15 20 25 27 32 48 53 53 55 43 49 43 58 44 67 72 52 21 22 61 83 84 51 49 58 64 68 65 68 59 33 40 22 15 15 24 32 34 35 31 34 45 59 47 40 35 42
7 14 23 31 28 46 48 51 52 34 34 26 52 42 52 72 77 32 20 28 73 76 72 45 60 62 66 70 67 63 42 26 22 15 15 26 32 35 32 34 42 53 50 52 47 44 71
6 8 17 28 37 34 41 49 50 29 25 20 45 27 41 60 71 71 22 22 49 69 63 45 61 59 62 74 62 55 39 25 16 15 21 32 33 42 47 43 47 59 61 58 77 89 92
4 7 14 23 29 40 45 47 49 32 15 9 22 19 17 51 64 75 38 23 38 72 38 41 63 59 65 63 62 43 36 44 17 18 26 35 39 59 56 53 61 70 69 75 78 93 89
2 5 12 23 26 28 37 46 48 42 29 6 13 22 6 24 58 74 67 24 46 71 40 46 54 66 64 65 59 43 30 45 38 23 25 38 49 61 67 65 69 60 59 65 67 86 88
2 4 11 23 26 27 27 36 42 45 40 27 4 20 25 4 34 64 76 38 36 70 62 50 48 63 54 63 60 50 37 35 45 32 26 34 55 53 43 54 46 45 56 57 72 82 88
2 4 10 18 19 25 27 27 33 37 42 34 15 2 30 12 4 39 76 73 30 63 55 64 43 53 63 50 58 57 52 44 45 40 29 42 46 33 53 67 66 67 61 61 65 71 74
3 3 8 13 14 14 28 28 28 31 34 39 20 3 26 12 4 6 62 84 48 28 46 57 62 48 62 60 52 53 53 51 43 46 39 32 32 38 53 64 70 65 64 62 60 63 66
3 2 4 7 10 12 10 20 24 29 33 35 24 3 32 6 13 6 39 85 50 42 60 58 59 50 54 61 58 48 50 55 55 50 45 40 41 38 45 56 62 64 59 56 56 56 66
5 4 3 4 4 6 11 18 29 18 28 32 25 5 30 8 3 2 23 71 86 41 74 58 59 64 53 64 68 56 50 55 60 48 57 42 41 48 52 39 55 64 63 60 56 61 62
6 5 5 5 5 5 4 9 15 22 16 24 23 11 4 9 2 3 30 70 90 59 78 58 61 65 59 65 68 75 62 64 59 63 52 51 48 60 45 51 60 64 65 63 63 68 83
3 3 4 4 5 5 5 5 6 10 14 9 14 11 6 6 3 10 41 67 91 81 51 70 74 66 74 62 74 82 92 86 75 79 78 65 61 60 64 67 78 75 66 92 92 95 80
4 4 6 7 6 6 6 6 5 5 6 11 4 5 5 7 4 27 65 89 96 65 53 78 91 87 82 81 85 93 95 97 92 78 70 77 81 68 62 66 63 79 67 68 79 89 72
4 5 6 6 6 5 5 5 5 5 5 5 8 4 4 7 11 31 78 93 76 72 67 79 90 82 97 95 93 96 93 98 86 86 78 73 66 57 64 60 61 74 73 59 56 72 77
3 4 7 6 5 5 4 4 5 4 5 6 5 6 8 11 22 24 70 76 80 84 79 83 90 93 89 92 97 97 96 88 96 96 96 96 82 70 66 69 67 58 55 67 59 88 89
3 3 6 8 6 6 5 5 4 4 5 5 7 6 8 10 18 30 60 93 87 83 88 97 91 90 97 100 97 94 98 83 94 92 95 97 97 94 88 72 71 71 66 62 55 55 62
3 3 4 6 8 8 7 6 5 5 4 5 6 8 8 7 23 49 68 97 65 95 94 95 98 98 97 96 96 99 93 92 97 96 98 94 98 97 88 95 82 75 71 67 65 77 67
7 5 4 4 5 7 8 7 6 5 5 6 6 6 7 9 21 33 48 60 68 72 76 97 100 89 90 92 97 98 96 99 99 96 97 97 98 97 98 98 98 97 79 74 84 74 70
10 9 7 4 4 6 8 9 8 7 7 6 6 6 8 11 14 16 17 22 40 65 86 98 94 95 96 93 92 92 96 90 95 97 98 98 97 91 72 62 65 81 86 91 96 98 87
13 12 10 7 6 7 10 11 10 10 8 7 6 5 5 9 11 11 12 14 13 25 34 57 93 92 97 99 98 98 92 88 86 91 94 97 97 93 89 81 74 68 72 88 98 96 98
12 12 11 9 8 11 14 13 12 10 8 6 6 5 5 5 5 5 8 10 12 15 22 25 40 59 84 98 97 98 98 89 97 99 100 97 97 96 100 96 98 95 85 86 96 97 98
10 11 12 10 10 14 15 14 12 10 8 6 5 5 4 5 5 6 6 6 6 7 10 13 21 32 37 58 76 87 90 95 96 96 99 98 96 96 94 98 97 97 94 92 87 87 93
10 12 12 11 13 16 16 14 12 10 8 6 6 5 5 5 6 6 6 6 6 6 6 6 9 16 21 28 36 53 69 80 84 86 96 96 96 96 95 96 95 84 83 95 99 93 91
10 12 12 12 16 17 16 15 12 11 9 5 5 5 5 6 8 8 8 6 6 6 6 6 6 10 21 37 61 69 70 80 76 80 94 96 96 95 95 94 91 82 82 86 97 97 98
11 13 14 15 18 18 17 17 15 13 10 7 5 5 7 8 10 9 9 8 9 8 8 8 11 19 26 59 88 80 70 74 85 99 100 97 96 96 95 95 94 90 75 90 97 95 96
12 13 15 18 19 20 20 20 19 19 19 19 19 17 15 12 12 10 9 11 11 17 21 28 37 44 58 87 94 83 63 60 59 84 95 97 97 96 96 95 80 57 76 97 90 58 81
11 14 16 19 21 22 23 23 24 25 25 26 24 20 15 11 9 10 12 15 23 35 39 57 82 74 96 100 99 90 70 58 54 71 92 89 93 95 95 91 45 36 35 47 41 33 35
11 14 17 20 22 24 26 27 28 28 28 28 22 17 12 9 12 14 29 61 72 72 75 84 100 100 100 99 99 95 79 71 58 64 66 83 87 85 92 93 95 94 51 85 44 40 44
Wind_Speed
27 26 24 23 20 20 21 22 23 21 20 20 19 17 14 14 11 10 8 9 10 10 11 9 14 16 18 19 20 11 19 24 27 27 25 23 22 22 23 23 25 24 23 16 20 19 22
29 27 25 23 20 19 19 20 22 21 19 19 17 18 13 11 11 8 9 10 6 1 10 10 13 15 18 18 21 20 12 25 26 28 26 23 21 21 21 20 22 24 15 17 18 20 22
30 30 26 23 20 17 18 18 21 21 20 19 16 16 12 9 10 8 11 13 13 9 8 11 12 14 16 15 18 20 16 20 23 23 24 23 19 19 18 19 22 15 20 19 19 21 24
29 31 29 25 22 18 17 18 19 21 20 18 15 16 12 9 10 8 11 12 14 7 9 10 12 13 13 15 17 18 18 16 23 23 22 20 19 21 16 20 21 20 18 21 20 22 24
27 29 30 26 23 21 18 16 17 19 19 19 17 16 14 10 8 10 9 12 13 12 7 7 12 11 9 14 18 18 20 15 23 25 24 22 21 24 19 24 23 26 17 19 21 24 26
25 27 28 26 25 21 18 16 16 17 19 18 17 16 15 11 8 8 10 10 11 11 9 6 12 8 10 14 16 18 23 17 22 28 27 26 27 30 24 26 28 30 25 25 25 26 26
23 24 27 26 25 22 20 16 16 17 18 19 18 16 15 13 10 7 9 9 9 13 13 7 9 10 5 14 17 21 20 23 21 28 31 32 33 37 37 30 25 25 30 27 25 27 27
22 22 25 26 26 25 22 20 16 15 16 19 19 16 14 14 10 8 9 9 9 12 11 11 10 10 13 7 17 21 25 25 27 28 32 31 39 34 34 28 23 24 26 26 24 22 26
21 22 23 25 26 26 25 23 21 15 15 17 20 18 12 15 11 7 7 11 9 13 14 14 12 10 14 14 12 19 26 27 27 30 33 37 35 35 33 34 27 22 26 29 25 23 23
21 22 22 24 25 27 26 25 24 20 15 17 19 18 14 15 9 7 9 11 9 9 6 9 17 15 16 15 15 16 22 27 26 30 33 32 30 25 35 34 34 30 22 21 27 27 21
21 22 23 24 25 25 26 27 24 23 18 17 17 18 14 13 9 6 8 11 13 5 3 4 10 16 17 19 8 18 19 26 27 26 35 31 26 29 26 38 36 32 23 17 20 28 22
20 21 22 24 25 26 26 26 25 24 21 18 17 17 15 12 8 3 5 10 6 6 5 3 5 11 17 21 18 11 22 24 23 18 25 29 22 18 29 25 32 29 21 17 17 20 6
17 19 21 22 23 24 26 26 25 25 23 21 18 16 15 13 6 2 6 8 4 5 3 3 5 10 17 22 22 19 24 29 19 18 22 26 24 20 19 27 28 33 28 5 3 5 5
16 19 21 22 23 23 23 23 24 25 24 22 19 17 14 13 8 1 5 10 6 3 9 4 3 5 15 20 24 19 21 30 29 18 13 21 13 33 28 30 32 39 38 15 8 6 7
16 19 21 22 22 21 22 22 23 22 23 22 20 18 14 11 7 5 8 9 3 4 5 6 7 9 12 17 16 26 28 34 29 34 14 18 22 15 23 30 30 35 37 37 8 2 4
17 19 21 21 21 22 22 22 23 23 22 21 20 18 15 12 8 8 11 13 8 5 9 9 9 8 12 19 21 18 24 22 35 30 31 17 7 16 34 24 29 29 34 27 24 7 6
19 20 21 22 22 23 23 24 23 24 23 21 20 19 16 14 9 10 19 15 19 17 12 12 13 18 16 12 21 22 13 18 16 25 31 40 23 9 28 32 32 31 29 29 20 26 6
20 21 22 23 23 24 24 25 24 23 23 22 21 19 18 12 9 11 17 18 21 20 14 17 18 19 20 23 20 20 27 22 13 22 37 39 22 14 20 32 35 32 33 38 23 14 22
21 22 23 24 25 25 26 26 25 24 23 21 20 20 15 15 9 8 12 17 19 21 20 18 18 23 24 26 14 10 18 25 21 21 21 33 18 9 10 21 31 40 34 32 40 24 28
22 23 24 24 25 25 26 26 26 25 23 21 19 14 17 16 10 12 15 16 15 17 20 20 21 22 24 25 22 17 17 16 17 21 32 22 27 21 20 11 22 39 40 45 39 24 27
22 23 24 25 25 24 24 25 25 24 23 21 16 12 13 15 18 17 18 19 20 18 20 23 22 20 22 23 21 23 23 23 26 23 23 25 20 32 38 24 22 17 26 38 44 44 21
22 23 24 25 25 24 24 24 24 23 21 18 14 13 13 15 12 14 14 19 20 19 20 23 23 22 23 28 27 31 23 20 20 18 19 30 24 28 32 38 35 27 28 28 37 40 42
22 23 24 24 24 24 24 24 23 22 20 17 15 14 14 14 15 16 17 17 20 21 21 19 22 24 22 21 24 27 26 27 25 20 17 20 24 21 10 23 28 22 39 36 36 36 40
22 22 23 23 24 24 24 24 23 22 20 18 17 16 17 17 17 18 19 19 21 22 25 25 25 27 28 27 26 27 24 23 26 25 23 22 19 18 8 10 5 18 23 36 37 36 37
22 22 23 23 23 24 24 24 23 23 21 20 20 20 21 23 25 21 23 24 23 24 26 28 27 25 25 23 19 15 18 18 22 21 21 23 21 9 10 13 9 11 15 24 32 30 31
21 22 22 22 23 24 24 24 24 23 23 23 24 25 27 27 27 28 28 30 32 32 29 27 24 20 22 18 13 9 7 7 6 6 20 21 20 17 11 5 7 6 14 21 23 19 23
22 22 22 22 23 24 24 24 25 25 25 26 27 28 29 29 29 31 33 29 30 30 29 23 20 19 17 19 19 13 10 8 7 7 13 17 16 17 12 5 4 6 12 18 13 9 16
22 23 23 23 24 24 25 25 26 27 28 29 29 29 30 31 32 28 31 30 27 24 23 18 14 14 14 21 12 13 10 11 10 10 9 16 12 9 9 4 5 9 15 15 7 19 23
23 24 24 24 25 25 25 26 27 28 29 30 30 31 31 30 29 28 24 15 15 17 16 13 13 6 11 10 14 8 10 6 13 9 14 12 12 9 12 9 9 16 16 12 15 22 28
Wind_Direction
353 348 340 331 333 333 339 339 338 337 334 332 329 328 304 284 277 272 266 249 254 250 317 283 237 227 221 215 207 203 207 208 206 210 211 213 213 212 213 210 208 204 211 207 210 210 208
1 353 349 340 334 334 338 340 339 337 336 333 329 333 320 291 283 265 249 240 252 294 296 290 243 226 224 217 211 217 205 204 206 210 208 208 217 214 214 209 205 209 201 207 215 222 210
5 358 351 347 339 335 338 343 342 340 338 336 331 334 326 298 281 268 243 238 239 262 264 282 246 231 228 205 213 215 218 207 205 208 209 207 208 210 215 206 202 203 205 208 213 216 207
359 1 355 348 346 335 333 339 341 342 340 338 331 337 329 311 285 262 250 242 233 237 245 292 247 228 226 212 211 207 209 199 192 197 198 205 201 201 207 201 196 200 198 201 196 196 197
356 359 359 351 345 342 338 336 342 344 345 340 338 337 334 320 296 262 246 245 239 233 246 261 261 233 211 215 209 203 202 194 192 190 194 196 199 193 201 200 189 193 193 196 194 195 201
355 358 1 358 356 347 337 333 336 341 350 346 338 334 336 326 304 267 251 241 237 233 236 255 275 232 209 210 209 206 201 194 195 192 192 194 196 197 202 195 189 195 196 199 201 197 201
356 0 4 4 5 359 351 335 333 334 342 348 341 333 328 330 310 283 255 251 239 229 232 257 278 226 171 202 203 204 202 202 192 199 195 196 197 201 209 210 217 211 199 204 201 200 204
357 4 8 8 7 5 0 353 334 329 334 343 343 337 328 325 309 287 248 246 236 228 220 226 267 253 223 200 199 202 202 202 201 200 201 201 210 209 206 206 206 206 202 204 205 208 212
360 5 8 9 9 9 7 360 353 334 334 337 343 339 327 327 310 281 240 247 247 242 247 239 226 260 245 228 216 214 208 208 212 207 206 209 223 212 210 207 208 205 209 209 213 211 217
5 8 5 6 7 11 7 2 0 354 342 339 340 343 334 336 306 288 230 236 235 241 260 256 238 240 231 221 225 216 215 214 212 217 214 218 220 220 214 214 215 213 208 214 223 223 216
14 14 12 8 6 8 8 7 2 2 352 342 341 345 343 345 320 292 255 234 243 226 320 250 233 218 219 217 224 213 208 214 219 216 209 218 224 220 221 223 215 223 218 214 220 217 216
16 16 15 12 10 9 8 8 4 360 1 351 344 342 343 340 331 302 250 240 247 202 257 239 232 215 208 211 216 207 199 208 215 220 226 222 226 222 235 228 221 214 204 193 202 211 236
7 6 5 1 358 0 2 4 3 2 1 358 350 343 341 340 335 285 193 220 159 220 245 242 235 225 214 212 215 222 210 202 202 196 210 218 217 219 217 217 212 211 197 129 181 193 228
354 355 354 354 354 356 355 352 356 359 2 360 355 346 343 339 328 242 197 203 212 252 261 287 293 243 225 220 219 223 236 217 212 214 213 205 212 218 214 209 200 204 201 186 202 198 201
343 344 347 351 353 356 358 354 353 350 355 357 357 350 342 336 317 240 219 214 257 233 264 288 266 256 236 222 229 227 236 230 231 217 215 211 219 218 213 217 213 206 207 213 225 188 183
330 334 341 347 347 350 352 352 349 347 348 346 352 348 346 335 314 255 233 234 245 256 265 281 265 237 237 226 219 223 219 238 235 229 230 213 207 204 210 206 213 223 219 203 219 179 225
319 327 334 339 340 341 341 343 345 339 340 338 339 340 342 334 304 247 232 251 261 272 286 284 280 272 276 220 233 238 234 227 220 232 234 222 222 201 211 209 213 210 207 210 220 228 221
317 320 327 332 334 335 335 334 337 337 334 332 331 328 328 329 293 257 245 262 272 269 276 280 288 280 279 284 297 237 240 242 233 227 214 223 218 213 210 216 210 212 215 217 217 213 231
318 319 322 327 329 330 331 331 333 335 334 331 326 318 318 314 302 292 280 278 281 282 285 279 271 278 283 284 292 260 258 225 222 221 225 218 213 183 205 224 224 216 208 215 221 233 230
322 321 323 327 328 327 329 329 332 334 333 332 328 316 315 307 304 302 298 294 281 283 285 278 279 278 281 283 279 269 270 288 274 228 216 215 224 220 231 223 220 222 227 223 221 223 231
322 324 327 329 328 328 329 329 331 333 334 333 333 324 312 300 307 303 300 296 298 290 282 282 281 281 287 289 287 271 275 273 268 271 272 235 231 232 236 238 233 226 227 229 227 228 218
322 325 327 328 328 330 329 331 333 335 337 333 333 329 326 321 317 312 307 307 304 299 293 292 286 285 278 278 280 285 282 278 271 262 258 244 241 242 237 238 239 233 231 229 226 232 241
320 321 325 327 328 328 331 332 334 335 336 333 336 332 330 328 329 324 319 316 310 307 301 292 290 289 283 283 281 278 272 270 267 264 267 255 242 238 239 235 232 237 233 229 229 231 232
316 318 322 326 326 328 330 332 332 333 334 331 331 331 332 329 327 322 313 312 309 305 300 300 293 287 285 281 277 278 276 269 263 262 256 250 245 233 225 167 218 240 238 228 227 230 229
314 317 322 325 325 326 328 329 331 330 329 326 325 324 323 319 318 316 307 303 300 297 294 295 296 290 284 278 279 277 270 267 256 252 244 239 232 208 188 201 265 246 230 217 215 222 223
312 315 319 321 322 322 325 326 326 326 322 320 317 317 316 315 313 310 308 306 304 300 294 287 284 281 270 261 245 240 234 226 227 214 214 218 217 210 185 186 208 247 215 207 211 222 215
309 311 315 317 318 319 323 323 322 322 320 319 319 316 314 313 310 308 304 304 302 298 294 291 282 269 256 236 225 236 240 226 230 202 184 191 203 210 197 209 235 244 193 174 170 193 177
307 308 311 314 315 319 320 320 321 320 320 320 318 316 314 313 310 307 304 303 300 297 292 278 275 263 236 222 226 226 245 228 228 209 188 193 188 184 192 179 232 173 173 171 181 161 156
306 306 309 311 314 316 318 319 320 320 320 320 318 317 316 315 311 309 308 312 310 305 298 276 240 262 222 221 222 222 239 234 223 212 205 193 200 189 194 196 172 175 174 185 149 157 144